Tracking 20621 objects as of 30-Mar-2020
HD Live streaming from Space Station
objects crossing your sky now

MOLNIYA 3-41

Track MOLNIYA 3-41 now!
MOLNIYA 3-41 is classified as:


NORAD ID: 21706
Int'l Code: 1991-065A
Perigee: 2,061.0 km
Apogee: 37,657.6 km
Inclination: 64.2 °
Period: 704.6 minutes
Semi major axis: 26230 km
RCS: 14.2786 m2 (large)
Launch date: September 17, 1991
Source: Commonwealth of Independent States (former USSR) (CIS)
Launch site: PLESETSK MISSILE AND SPACE COMPLEX (PKMTR)
aabbcc
Your satellite tracking list
Your tracking list is empty




NASA's NSSDC Master Catalog

Two Line Element Set (TLE):
1 21706U 91065A   20089.73051486 -.00000198 +00000-0 -28502-1 0  9998
2 21706 064.2043 250.5429 6785397 265.3975 162.4313 02.04361195210369
Source of the keplerian elements: AFSPC